星链-32452 (STARLINK-32452)

导读

STARLINK-32452是美国SpaceX星链星座中的一颗卫星,于2024年11月14日08:00发射升空。作为星链互联网星座的组成部分,它主要用于为全球覆盖区域提供低延迟、高速率的卫星互联网服务,进一步扩充了星链星座的在轨规模,推动全球卫星互联网组网进程。

基本信息
目录编号:
61961
目录名称:
STARLINK-32452
国际标识:
2024-210C
轨道中心:
EARTH
卫星名称:
星链-32452
卫星全名:
星链-32452 (STARLINK-32452)
卫星状态:
在轨 (已飞行659 天)
发射日期:
2024-11-14 UTC
国别 :
美国 (US)
星等 :
--
轨道信息
数据来源 国际轨道数据
星历时间: 2026-09-04T09:48:13+0800
10小时前
查看轨道信息
半长轴: 6861.151km
偏心率: 0.0001374
轨道倾角: 42.998°
近地点辐角 261.571°
升交点赤经 245.309°
平近点角 98.498°
近地点: 482.071km
远地点: 483.957km
周期: 94.266分钟
每日圈数: 15.275918
详细信息
固有亮度:
5
最大亮度:
2.5
卫星平台:
Starlink V1.0
覆盖范围:
全球
运营商:
太空探索技术公司
运营商所在国:
美国
制造商(研发单位):
太空探索技术公司
制造商所在国:
美国
使用方式:
暂无
卫星简介
Starlink 计划是 SpaceX 推出的全球卫星互联网项目,通过发射低轨道卫星,为全球尤其是偏远地区提供高速、低延迟的互联网服务。自 2019 年起,Starlink 已部署数千颗卫星,旨在缩小全球数字鸿沟,推动互联网普及。该项目还为军事、航空等行业提供通信支持,带来广泛经济效益。
2D轨道图
3D轨道图
轨道高度分析图
轨道倾角分析图
轨道综合分析图
查看轨道综合分析图